Skip to main content.
NOAA NWS Hourly Roundups by Site

NOAA NWS Hourly Roundups by Site

Regional Weather Roundup for Omaha, NE

To Select Another Site Choose from List

Select Site:  

000
ASUS43 KOAX 241110
RWRNE

WEATHER ROUNDUP FOR NEBRASKA
NATIONAL WEATHER SERVICE OMAHA NE
500 AM CST SUN JAN 24 2021

NOTES: SATELLITE DATA IS BEING USED TO AUGMENT CLOUD COVER ABOVE
       12000 FEET.
       "FAIR" INDICATES FEW OR NO CLOUDS BELOW 12,000 FEET WITH NO
       SIGNIFICANT WEATHER AND/OR OBSTRUCTIONS TO VISIBILITY.


NEZ001>004-019>022-054>056-241200-
NEBRASKA PANHANDLE

CITY           SKY/WX    TMP DP  RH WIND       PRES   REMARKS
SCOTTSBLUFF    CLOUDY    25  21  85 SE6       29.95F WCI  18
ALLIANCE       CLOUDY    19  16  88 CALM      29.95F
CHADRON        CLOUDY    22  18  85 E3        29.96F
GORDON         CLOUDY    17  15  90 CALM      29.95F
KIMBALL        CLOUDY    23  21  91 S3        29.92F
SIDNEY         CLOUDY    20  19  96 SW3       29.94S
$$

NEZ057>060-069>072-079>082-241200-
SOUTHWEST NEBRASKA

CITY           SKY/WX    TMP DP  RH WIND       PRES   REMARKS
NORTH PLATTE   CLOUDY    25  20  81 N7        29.99S WCI  17
IMPERIAL       CLEAR     17  14  88 NW9       29.99R WCI   6
LEXINGTON      CLOUDY    28  24  84 N9        30.00R WCI  19
MCCOOK         CLOUDY    28  23  81 N7        30.01R WCI  21
OGALLALA       CLEAR     21  19  89 W6        30.00R WCI  14
$$

NEZ005>010-023>029-035>040-094-241200-
NORTH CENTRAL NEBRASKA

CITY           SKY/WX    TMP DP  RH WIND       PRES   REMARKS
VALENTINE      CLOUDY    25  19  78 N6        30.01R WCI  18
AINSWORTH      CLOUDY    23  19  85 N8        30.01S WCI  14
BROKEN BOW     CLOUDY    26  22  84 N13       29.99R WCI  15
O`NEILL        CLOUDY    26  24  93 N10       30.01S WCI  15
ORD            CLOUDY    26  22  84 N15       30.00R WCI  14
THEDFORD       CLOUDY    26  23  87 N6        30.00R WCI  19
$$

NEZ041-046>049-061>064-073>077-083>087-241200-
SOUTH CENTRAL NEBRASKA

CITY           SKY/WX    TMP DP  RH WIND       PRES   REMARKS
GRAND ISLAND   CLOUDY    27  22  81 N12       30.01R WCI  17
AURORA         CLOUDY    28  25  87 N13G20    30.00R WCI  17
HASTINGS       CLOUDY    27  23  85 N16       30.00R WCI  15
HEBRON         CLOUDY    30  27  90 N8        29.99R WCI  22
HOLDREGE       CLOUDY    28  25  89 N13       30.00R WCI  17
KEARNEY        CLOUDY    26  24  92 N16       30.00R WCI  14
YORK           CLOUDY    28  27  93 N8        29.99R WCI  20
$$

NEZ011>018-030>034-042>045-241200-
NORTHEAST NEBRASKA

CITY           SKY/WX    TMP DP  RH WIND       PRES   REMARKS
NORFOLK        CLOUDY    27  22  81 N15G23    30.00R WCI  15
ALBION         CLOUDY    26  23  87 N15       30.01R WCI  14
BLAIR          CLOUDY    27  25  92 N8        29.98S WCI  18
COLUMBUS       CLOUDY    27  25  92 MISG      30.02R
FREMONT        CLOUDY    28  26  91 N5        29.99S WCI  23
TEKAMAH        CLOUDY    28  24  85 N6        30.01R WCI  22
WAYNE          CLOUDY    27  24  89 N9        30.01R WCI  18
$$

NEZ050>053-065>068-078-088>093-241200-
SOUTHEAST NEBRASKA

CITY           SKY/WX    TMP DP  RH WIND       PRES   REMARKS
LINCOLN        CLOUDY    28  24  85 N6        30.00R WCI  22
OMAHA EPPLEY   CLOUDY    27  24  89 N7        29.99S WCI  19
BEATRICE       CLOUDY    29  26  88 N6        29.97S WCI  23
FALLS CITY     CLOUDY    34  23  64 NW5       29.96R WCI  30
NEBRASKA CITY  CLOUDY    32  20  61 N7        29.96S WCI  26
PLATTSMOUTH    CLOUDY    29  23  78 N7        29.97S WCI  22
$$

NEZ044-045-051>053-067-241200-
OMAHA AREA

CITY           SKY/WX    TMP DP  RH WIND       PRES   REMARKS
OMAHA EPPLEY   CLOUDY    27  24  89 N7        29.99S WCI  19
BLAIR          CLOUDY    27  25  92 N8        29.98S WCI  18
FREMONT        CLOUDY    28  26  91 N5        29.99S WCI  23
MILLARD        CLOUDY    30  24  77 N6        29.99S WCI  24
PLATTSMOUTH    CLOUDY    29  23  78 N7        29.97S WCI  22
WAHOO          CLOUDY    28  28 100 N6        30.00R WCI  22
$$


 

View Past Reports for Omaha, NE.

Products Courtesy of NOAA-NWS
NWS Information Parsing Script by Ken True at Saratoga Weather - Script by SE Lincoln Weather.